#timestamp,LO_Frequency,Hit,StdDev 
1546491615.3,286047000.8,N
1546491635.1,286047001.1,N
1546491655.8,286047002.3,N
1546491675.7,286047001.3,N
1546491695.5,286047004.1,N
1546491715.4,286047004.2,N
1546491735.2,286047003.7,N
1546491755.0,286047001.8,N
1546491755.9,286047001.8,N
1546491775.8,286047002.6,N
1546491795.6,286047002.4,N
1546491815.5,286047002.6,N
1546491835.3,286047002.3,N
1546491855.1,286047002.6,N
1546491875.9,286047001.8,N
1546491895.7,286047001.9,N
1546491915.6,286047001.4,N
1546491935.4,286047002.5,N
1546491955.2,286047002.8,N
1546491975.1,286046999.8,N
1546491976.0,286046999.8,N
1546491995.8,286047002.7,N
1546492015.7,286047000.6,N
1546492035.5,286047000.3,N
1546492055.3,286047002.0,N
1546492075.2,286046999.8,N
1546492095.0,286047002.8,N
1546492095.9,286047002.8,N
1546492115.7,286047002.3,N
1546492135.6,286047001.9,N
1546492155.4,286047002.6,N
1546492175.3,286047000.7,N
1546492195.1,286046998.3,N
1546492196.0,286046998.3,N
1546492215.8,286046998.1,N
1546492235.7,286047000.4,N
1546492255.5,286047000.6,N
1546492275.3,286047001.1,N
1546492295.2,286047002.8,N
1546492315.0,286047002.8,N
1546492315.9,286047002.8,N
1546492335.8,286047002.2,N
1546492355.6,286047001.8,N
1546492375.4,286047002.5,N
1546492395.3,286047000.7,N
1546492415.1,286046998.3,N
1546492435.9,286046998.2,N
1546492455.7,286047000.5,N
1546492475.5,286047000.6,N
1546492495.4,286047001.0,N
1546492515.2,286046998.2,N
1546492535.0,286047002.3,N
1546492536.0,286047002.3,N
1546492555.8,286046999.7,N
1546492575.6,286047004.2,N
1546492595.5,286047001.9,N
1546492615.3,286047002.1,N
1546492635.1,286047003.7,N
1546492655.9,286047003.4,N
1546492675.7,286047004.2,N
1546492695.6,286047004.2,N
1546492715.4,286047001.4,N
1546492735.2,286047004.4,N
1546492755.1,286047003.8,N
1546492756.0,286047003.8,N
1546492775.8,286047003.8,N
1546492795.6,286047005.5,Y
1546492815.5,286047002.2,P
1546492835.3,286046999.8,N
1546492855.2,286046999.8,N
1546492875.9,286046999.9,N
1546492895.7,286047001.1,N
1546492915.6,286047001.2,N
1546492935.4,286046998.6,N
1546492955.2,286046996.7,N
1546492975.1,286046997.9,N
1546492976.0,286046997.9,N
1546492995.8,286046995.4,N
1546493015.7,286046996.9,N
1546493035.5,286046999.6,N
1546493055.3,286046997.0,N
1546493075.2,286046998.6,N
1546493095.0,286046999.1,N
1546493115.3,286046999.6,N
1546493135.2,286046997.9,N
1546493155.0,286046997.2,N
1546493155.9,286046997.2,N
1546493175.8,286046999.5,N
1546493195.6,286046998.6,N
1546493215.4,286046999.5,N
1546493235.3,286046996.9,N
1546493255.1,286046998.9,N
1546493275.8,286046997.6,N
1546493295.7,286046997.0,N
1546493315.5,286046998.5,N
1546493335.4,286046998.5,N
1546493355.2,286046999.4,N
1546493375.0,286046999.6,N
1546493375.9,286046999.6,N
1546493395.3,286046998.9,N
1546493415.1,286046999.2,N
1546493435.9,286046998.8,N
1546493455.7,286046999.0,N
1546493475.5,286046998.8,N
1546493495.4,286046998.4,N
1546493515.2,286047000.6,N
1546493535.1,286047001.2,N
1546493536.0,286047001.2,N
1546493555.8,286047000.3,N
1546493575.7,286046999.1,N
1546493595.5,286046997.0,N
1546493615.3,286046997.6,N
1546493635.2,286046996.8,N
1546493655.9,286046999.5,N
1546493675.7,286046997.3,N
1546493695.6,286046994.9,Y
1546493715.4,286047000.5,P
1546493735.3,286046998.2,N
1546493755.1,286046999.2,N
1546493756.0,286046999.2,N
1546493775.8,286046998.9,N
1546493795.7,286046998.7,N
1546493815.5,286046998.2,N
1546493835.4,286046999.8,N
1546493855.2,286046998.1,N
1546493875.0,286047000.8,N
1546493875.9,286047000.8,N
1546493895.8,286046998.5,N
1546493915.6,286047000.6,N
1546493935.4,286047000.3,N
1546493955.3,286047000.6,N
1546493975.1,286047000.7,N
1546493995.9,286046999.1,N
1546494015.7,286046998.8,N
1546494035.5,286047000.9,N
1546494055.4,286047001.1,N
1546494075.2,286047000.2,N
1546494095.1,286046999.9,N
1546494096.0,286046999.9,N
1546494115.8,286047000.5,N
1546494135.6,286047000.7,N
1546494155.5,286046998.7,N
1546494175.3,286047000.9,N
1546494195.1,286047002.3,N
1546494215.9,286047000.1,N
1546494235.7,286047000.4,N
1546494255.6,286047001.2,N
1546494275.4,286047000.9,N
1546494295.2,286047000.0,N
1546494315.1,286046999.8,N
1546494316.0,286046999.8,N
1546494335.8,286047002.5,N
1546494355.7,286047002.7,N
1546494375.5,286046998.1,N
1546494395.3,286046998.6,N
1546494415.2,286047001.1,N
1546494435.0,286047001.1,N
1546494435.9,286047001.1,N
1546494455.8,286046998.1,N
1546494475.6,286047002.7,N
1546494495.4,286047000.9,N
1546494515.3,286047000.3,N
1546494535.1,286047000.3,N
1546494555.8,286047000.6,N
1546494575.7,286047001.1,N
1546494595.5,286047000.5,N
1546494615.4,286047000.4,N
1546494635.2,286046998.5,N
1546494655.0,286046999.4,N
1546494655.9,286046999.4,N
1546494675.8,286046998.2,N
1546494695.6,286046998.5,N
1546494715.5,286047001.2,N
1546494735.3,286047000.3,N
1546494755.1,286047000.1,N
1546494775.9,286046999.9,N
1546494795.7,286046999.7,N
1546494815.5,286047001.7,N
1546494835.4,286047002.5,N
1546494855.2,286047004.3,Y
1546494875.1,286047001.9,P
1546494876.0,286047001.9,N
1546494895.8,286047000.1,N
1546494915.6,286046999.9,N
1546494935.5,286047002.8,Y
1546494955.3,286047002.8,P
1546494975.2,286047000.3,N
1546494995.9,286047000.2,N
1546495015.7,286047001.0,N
1546495035.6,286047000.2,N
1546495055.4,286047000.9,N
1546495075.2,286046998.6,N
1546495095.1,286047000.0,N
1546495096.0,286047000.0,N
1546495115.8,286047000.4,N
1546495135.7,286047001.2,N
1546495155.5,286046998.9,N
1546495175.3,286047000.4,N
1546495195.2,286046999.9,N
